www.pogodaiklimat.ru

Погода и климат >> Архив погоды >> Россия >> Калмыкия >> Комсомольский


ПОГОДА в Комсомольском

  • Прогноз погоды в Комсомольском
  • Монитор погоды в Комсомольском
  • Климат города

АРХИВ ПОГОДЫ в Комсомольском

Время (UTC), дата Ветер
(напр.,м/с)
 
Видим.   Явления Облачность Т
(С)
Тd
(С)
f
(%)
Тe
(С)
Тes
(С)
Комфортность P
(гПа)
Po
(гПа)
Тmin
(С)
Tmax
(С)
R
(мм)
R24
(мм)
S
(см)
18 13.05 ЮВ 2 20 км {метель} ясно +19.8 +10.3 54 +22 +22 комфорт 1013.7 1014.0
21 13.05 В 2 20 км ясно +17.0 +13.5 80 +17 +17 1013.5 1013.9
00 14.05 СВ 2 20 км ясно +14.9 +12.4 85 +15 +15 1013.2 1013.5
03 14.05 В 1 20 км ясно +17.0 +12.2 73 +18 +20 1013.8 1014.2 +13.2
06 14.05 ЮВ 3 20 км ясно +25.8 +11.7 41 +27 +37 жарко 1013.7 1014.1
09 14.05 В 5-10
{12}
20 км 6/0
[Ac trans Ci fib]
+31.5 +6.4 21 +30 +36 жарко 1013.1 1013.5
12 14.05 ЮВ 7-14
{14}
10 км пыльный позёмок 4/0
[Ci fib]
+31.2 +6.5 21 +30 +32 жарко 1013.2 1013.6
15 14.05 ЮВ 5
{15}
10 км ясно +27.6 +7.1 27 +27 +28 жарко 1014.1 1014.4 +31.9
18 14.05 ЮВ 3
{11}
20 км 3/0
[Ac trans]
+21.6 +5.8 36 +22 +22 комфорт 1016.4 1016.8
21 14.05 ЮВ 2 20 км ясно +17.7 +13.5 76 +18 +18 1016.7 1017.1
00 15.05 В 1 20 км ясно +14.8 +12.9 88 +15 +15 1017.1 1017.5
03 15.05 В 1 20 км 4/0
[Ci fib]
+17.9 +14.0 78 +19 +21 1018.2 1018.6 +13.3
06 15.05 В 2 20 км 1/0
[Ci fib]
+25.8 +5.6 27 +25 +37 комфорт 1018.6 1019.0
09 15.05 В 4 20 км 1/0
[Ci fib]
+30.3 +0.7 15 +28 +40 жарко 1018.1 1018.5
12 15.05 ЮВ 4 20 км 3/3 1000 м
[Cu hum]
+30.3 +0.1 14 +27 +33 жарко 1017.8 1018.1
15 15.05 ЮВ 4 20 км ясно +27.9 +0.6 17 +26 +26 жарко 1017.3 1017.7 +30.9
18 15.05 Ю 2 20 км ясно +20.6 +4.2 34 +22 +22 комфорт 1018.7 1019.1
21 15.05 ЮЗ 1 20 км ясно +15.9 +6.3 53 +17 +17 1018.7 1019.1
00 16.05 З 1 н/о н/о +13.6 +5.6 58 +14 +14 1018.7 1019.1
03 16.05 Ю 1 20 км ясно +16.2 +5.9 50 +17 +19 1019.3 1019.7 +13.0
06 16.05 Ю 2 20 км ясно +27.2 -1.9 15 +25 +36 комфорт 1019.2 1019.6
09 16.05 Ю 2 20 км 1/0
[Ci fib]
+30.7 -0.9 13 +28 +45 жарко 1018.4 1018.8
12 16.05 С 2 20 км 1/1 1000 м
[Cu med, cong]
+31.9 +0.4 13 +29 +39 жарко 1017.2 1017.5
15 16.05 Ю 5-10
{11}
20 км 3/0
[Ac und]
+28.2 -1.4 14 +25 +26 комфорт 1016.7 1017.0 +32.9
18 16.05 Ю 3
{10}
20 км ясно +21.1 +2.2 29 +21 +21 комфорт 1018.2 1018.6
21 16.05 Ю 2 20 км ясно +17.6 +2.6 37 +18 +18 1018.2 1018.6
00 17.05 Ю 1 20 км ясно +13.5 +3.7 51 +14 +14 1018.0 1018.4
03 17.05 Ю 1 20 км 1/0
[Ci fib]
+15.9 +4.6 47 +17 +18 1018.7 1019.1 +12.7
06 17.05 ЮВ 3 20 км ясно +26.6 -5.8 11 +24 +33 комфорт 1019.4 1019.8
09 17.05 ЮВ 3 20 км ясно +30.6 -0.5 13 +27 +43 жарко 1019.0 1019.4
12 17.05 ЮВ 3 20 км ясно +31.7 -3.5 10 +28 +37 жарко 1018.0 1018.3
15 17.05 ЮВ 4 20 км ясно +28.4 -3.4 12 +25 +26 комфорт 1017.7 1018.0 +31.7
18 17.05 ЮВ 3 20 км ясно +21.2 +4.9 34 +22 +22 комфорт 1018.5 1018.8
21 17.05 ЮВ 2 20 км ясно +16.3 +8.4 59 +16 +16 1017.8 1018.2
00 18.05 Ю 1 20 км ясно +13.8 +9.9 77 +14 +14 1017.5 1017.9
03 18.05 ЮВ 1 20 км ясно +16.0 +11.3 74 +17 +19 1017.5 1017.9 +12.5
06 18.05 ЮВ 4 20 км ясно +26.7 +2.8 21 +25 +33 комфорт 1016.8 1017.2
09 18.05 ЮВ 5
{10}
20 км ясно +30.5 +1.6 16 +28 +38 жарко 1015.6 1016.0
12 18.05 ЮВ 5-10
{10}
20 км ясно +31.8 +3.3 16 +29 +35 жарко 1014.4 1014.8
15 18.05 ЮВ 5
{11}
20 км ясно +27.9 -1.1 15 +25 +26 комфорт 1014.2 1014.5 +32.1
18 18.05 ЮВ 3 20 км 3/0
[Ci fib]
+20.7 +6.5 40 +22 +22 комфорт 1015.2 1015.6
21 18.05 ЮВ 2 н/о н/о +16.1 +11.9 76 +16 +16 1014.8 1015.2
00 19.05 ЮВ 2 20 км ясно +14.6 +13.1 91 +14 +14 1014.2 1014.6
03 19.05 штиль 0 4000 м дымка 6/4 600 м
[Sc Ac trans Ci fib]
+15.0 +13.8 93 +15 +16 1014.8 1015.2 +11.8
06 19.05 СВ 1 20 км 3/0
[Ci fib]
+24.3 +12.0 46 +26 +39 жарко 1014.8 1015.2
09 19.05 СВ 1 20 км 4/0
[Ac trans Ci fib]
+32.2 +3.7 17 +30 +47 жарко 1013.9 1014.2
12 19.05 В 1 20 км 4/0
[Ci fib]
+33.9 +1.4 13 +31 +43 жарко 1012.9 1013.3
15 19.05 СВ 2 20 км 3/0
[Ac trans Ci fib]
+32.8 +1.5 14 +30 +31 жарко 1012.5 1012.9 +34.7
18 19.05 ЮВ 2 20 км 3/0
[Ac trans]
+24.5 +8.3 36 +25 +25 комфорт 1014.1 1014.4
21 19.05 В 1 20 км 3/0
[Ac trans]
+20.9 +12.0 57 +24 +24 комфорт 1013.4 1013.8
00 20.05 ЮВ 2 20 км ясно +17.8 +11.8 68 +18 +18 1013.3 1013.7
03 20.05 В 2 20 км 9/9 600 м
[Sc Ac trans]
+19.7 +11.7 60 +22 +22 комфорт 1013.8 1014.2 +17.4
06 20.05 В 2 20 км 10/10 540 м
[Sc]
+26.4 +8.7 33 +27 +27 жарко 1013.9 1014.3
09 20.05 СВ 3 20 км 8/8 600 м
[Sc Ac und]
+30.0 +7.7 25 +29 +32 жарко 1013.3 1013.7
12 20.05 СВ 4 20 км 8/0
[Ac und]
+32.3 +4.0 17 +30 +33 жарко 1012.2 1012.6

 

Местоположение метеостанции Комсомольский (Калмыкия, Россия): широта 45.35 долгота 46.03 высота над уровнем моря -2 м.

В архиве по умолчанию представлена погода в Комсомольском за последнюю неделю. Архивные данные за месяц целиком и за предыдущие месяцы, начиная с января 2011 года, Вы можете получить, выбрав интересующий диапазон дат из раскрывающегося списка и нажав кнопку "Ввод!".


*Определитесь, кто Вы:
робот инопланетянин человек

Внимание! Время в таблицах - всемирное. Для получения местного времени необходимо прибавить поправку, которая в Комсомольском равна 3 ч.

Смотрите также архив погоды в соседних городах и на ближайших метеорологических станциях:

Погода в Артезиане (Калмыкия, Россия) (70 км)
Погода в Южно-Сухокумске (Дагестан, Россия) (83 км)
Погода в Лагани (Калмыкия, Россия) (103 км)
Погода в Лимане (Астраханская область, Россия) (105 км)
Погода в Яшкуле (Калмыкия, Россия) (106 км)
Погода в Кочубее (Дагестан, Россия) (113 км)
Погода в Утте (Калмыкия, Россия) (113 км)
Погода в Ики-Буруле (Калмыкия, Россия) (120 км)
Погода в Терекли-Мектебе (Дагестан, Россия) (136 км)
Погода в Арзгире (Ставропольский край, Россия) (143 км)

Пояснения к столбцам:

Ветер - указаны скорость ветра в м/с - средняя за 10 мин, порывы в срок и между сроками (в фигурных скобках) и направление, откуда дует ветер: С - северный, СВ - северо-восточный, В - восточный, ЮВ - юго-восточный, Ю - южный, ЮЗ - юго-западный, З - западный, СЗ - северо-западный.
Видимость - горизонтальная дальность видимости в метрах или километрах. При видимости от 1 до 10 км при отсутствии осадков обычно наблюдается дымка, при ухудшении видимости до 1 км и менее - туман. В сухую погоду видимость может ухудшаться дымом, пылью или мглою.
Явления - указаны атмосферные явления, наблюдавшиеся в срок или в последний час перед сроком; фигурными скобками обозначены явления, наблюдавшиеся между сроками (за 1-3 часа до срока); квадратными скобками обозначены град или гололедные отложения с указанием их диаметра в мм.
Облачность - указаны через наклонную черту общая и нижняя облачность в баллах и высота нижней границы облаков в метрах; квадратными скобками обозначены формы облаков: Ci - перистые, Cs - перисто-слоистые, Cc - перисто-кучевые, Ac - высококучевые, As - высокослоистые, Sc - слоисто-кучевые, Ns - слоисто-дождевые, Cu - кучевые, Cb - кучево-дождевые. Подробнее классификацию облаков см. в Атласе облаков (PDF).
T - Температура воздуха - температура, измеренная на высоте 2 м над землей.
Td - Температура точки росы - температура, при понижении до которой содержащийся в воздухе водяной пар достигнет насыщения.
f - Относительная влажность воздуха - влажноcть воздуха, измеренная на высоте 2 м над землей.
Te - Эффективная температура - температура, которую ощущает одетый по сезону человек в тени. Характеристика душности погоды. При расчете учитывается влияние влажности воздуха и скорости ветра на теплоощущения человека.
Tes - Эффективная температура на солнце - температура, которую ощущает человек, с поправкой на солнечный нагрев. Характеристика знойности погоды. Зависит от высоты солнца над горизонтом, облачности и скорости ветра. Ночью, в пасмурную погоду, а также при ветре 12 м/с и более поправка равна нулю.
P - Атмосферное давление - приведенное к уровню моря атмосферное давление.
Po - Атмосферное давление - измеренное на уровне метеостанции атмосферное давление.
Tmin - Минимальная температура - минимум температуры воздуха на высоте 2 м над землей.
Tmax - Максимальная температура - максимум температуры воздуха на высоте 2 м над землей.
R - Количество осадков - Количество выпавших осадков за период времени, мм. При наведении курсора мыши на число - период времени, за который выпало указанное количество осадков.
R24 - Количество осадков - Количество выпавших осадков за 24 часа, мм.
S - Снежный покров - Высота снежного покрова, см. При наведении курсора мыши на число - состояние снежного покрова и степень покрытия местности в баллах.